Weather History for KHNR - January, 2014

Change the Weather History Date:

Monday, January 13, 2014

  Actual Average (WUND) Record (WUND)
Temperature  
Mean Temperature 35 °F -  
Max Temperature 42 °F - - (-1)
Min Temperature 28 °F - - (-1)
Degree Days  
Heating Degree Days 30    
Moisture  
Dew Point 26 °F    
Average Humidity 69    
Maximum Humidity 87    
Minimum Humidity 39    
Precipitation  
Precipitation 0.00 in - - ()
Sea Level Pressure  
Sea Level Pressure 29.76 in    
Wind  
Wind Speed 12 mph (West)    
Max Wind Speed 21 mph    
Max Gust Speed 24 mph    
Visibility 10 miles    
Events      
Averages and records for this station are not official NWS values.
T = Trace of Precipitation, MM = Missing Value Source: NWS Daily Summary

Daily Weather History Graph

Daily Weather History Graph

Search for Another Location

Airport or City:

Trip Planner

Search our weather history database for the weather conditions in past years. The results will help you decide how hot, cold, wet, or windy it might be!

Date:

Astronomy

Jan. 13, 2014 Rise Set
Actual Time 7:46 AM CST 5:14 PM CST
Civil Twilight 7:15 AM CST 5:44 PM CST
Nautical Twilight 6:41 AM CST 6:19 PM CST
Astronomical Twilight 6:08 AM CST 6:52 PM CST
Moon 3:30 PM CST (1/13) 5:35 AM CST (1/13)
Length of Visible Light 10h 29m
Length of Day
9h 27m
Waxing Gibbous, 95% of the Moon is Illuminated
Jan 13
Waxing Gibbous
Jan 15
Full
Jan 23
Last Quarter
Jan 30
New
Feb 6
First Quarter

Hourly Weather History & Observations

Time (CST) Temp. Windchill Dew Point Humidity Pressure Visibility Wind Dir Wind Speed Gust Speed Precip Events Conditions
12:15 AM 41.0 °F 35.2 °F 32.0 °F 70% 29.67 in 10.0 mi West 9.2 mph - N/A   Overcast
12:35 AM 41.0 °F 34.7 °F 32.0 °F 70% 29.67 in 10.0 mi West 10.4 mph - N/A   Overcast
12:55 AM 41.0 °F 35.2 °F 32.0 °F 70% 29.66 in 10.0 mi West 9.2 mph - N/A   Overcast
1:15 AM 39.2 °F 31.6 °F 32.0 °F 75% 29.66 in 10.0 mi WNW 12.7 mph - N/A   Mostly Cloudy
1:35 AM 39.2 °F 32.0 °F 32.0 °F 75% 29.67 in 10.0 mi West 11.5 mph - N/A   Mostly Cloudy
1:55 AM 39.2 °F 31.6 °F 30.2 °F 70% 29.68 in 10.0 mi WNW 12.7 mph - N/A   Overcast
2:15 AM 39.2 °F 32.5 °F 30.2 °F 70% 29.68 in 10.0 mi WNW 10.4 mph - N/A   Overcast
2:35 AM 37.4 °F 30.3 °F 30.2 °F 75% 29.68 in 10.0 mi WNW 10.4 mph - N/A   Overcast
2:55 AM 37.4 °F 29.8 °F 30.2 °F 75% 29.69 in 10.0 mi WNW 11.5 mph - N/A   Overcast
3:15 AM 37.4 °F 28.2 °F 30.2 °F 75% 29.70 in 10.0 mi WNW 16.1 mph - N/A   Mostly Cloudy
3:35 AM 37.4 °F 27.8 °F 28.4 °F 70% 29.70 in 10.0 mi WNW 17.3 mph - N/A   Partly Cloudy
3:55 AM 37.4 °F 27.8 °F 28.4 °F 70% 29.71 in 10.0 mi WNW 17.3 mph 24.2 mph N/A   Clear
4:15 AM 37.4 °F 28.5 °F 28.4 °F 70% 29.72 in 10.0 mi NW 15.0 mph - N/A   Partly Cloudy
4:35 AM 33.8 °F 24.3 °F 28.4 °F 81% 29.73 in 10.0 mi WNW 13.8 mph - N/A   Partly Cloudy
4:55 AM 35.6 °F 25.9 °F 28.4 °F 75% 29.74 in 10.0 mi NW 16.1 mph - N/A   Clear
5:15 AM 35.6 °F 25.5 °F 28.4 °F 75% 29.75 in 10.0 mi NW 17.3 mph 23.0 mph N/A   Clear
5:35 AM 33.8 °F 24.8 °F 28.4 °F 81% 29.76 in 10.0 mi NW 12.7 mph 18.4 mph N/A   Clear
5:55 AM 32.0 °F 23.0 °F 28.4 °F 87% 29.77 in 10.0 mi NW 11.5 mph - N/A   Clear
6:15 AM 32.0 °F 22.1 °F 28.4 °F 87% 29.77 in 10.0 mi NW 13.8 mph - N/A   Clear
6:35 AM 32.0 °F 21.2 °F 28.4 °F 87% 29.78 in 10.0 mi NW 16.1 mph - N/A   Clear
6:55 AM 32.0 °F 22.5 °F 28.4 °F 87% 29.78 in 10.0 mi NW 12.7 mph - N/A   Clear
7:15 AM 30.2 °F 19.8 °F 26.6 °F 86% 29.79 in 10.0 mi NW 13.8 mph - N/A   Clear
7:35 AM 30.2 °F 17.4 °F 26.6 °F 86% 29.79 in 10.0 mi NW 20.7 mph - N/A   Clear
7:55 AM 30.2 °F 18.9 °F 24.8 °F 80% 29.80 in 10.0 mi NW 16.1 mph - N/A   Clear
8:15 AM 28.4 °F 19.1 °F 24.8 °F 86% 29.81 in 10.0 mi NNW 10.4 mph - N/A   Mostly Cloudy
8:35 AM 28.4 °F 18.0 °F 24.8 °F 86% 29.83 in 10.0 mi NNW 12.7 mph - N/A   Mostly Cloudy
8:55 AM 30.2 °F 22.6 °F 24.8 °F 80% 29.84 in 10.0 mi NW 8.1 mph - N/A   Partly Cloudy
9:15 AM 30.2 °F 21.3 °F 24.8 °F 80% 29.86 in 10.0 mi NW 10.4 mph 17.3 mph N/A   Clear
9:35 AM 30.2 °F 18.9 °F 24.8 °F 80% 29.86 in 10.0 mi NW 16.1 mph - N/A   Clear
9:55 AM 32.0 °F 21.6 °F 24.8 °F 75% 29.86 in 10.0 mi NW 15.0 mph - N/A   Clear
10:15 AM 32.0 °F 22.5 °F 24.8 °F 75% 29.87 in 10.0 mi NW 12.7 mph 19.6 mph N/A   Clear
10:35 AM 33.8 °F 24.3 °F 24.8 °F 70% 29.86 in 10.0 mi NW 13.8 mph - N/A   Clear
10:55 AM 33.8 °F 24.8 °F 24.8 °F 70% 29.86 in 10.0 mi NNW 12.7 mph 19.6 mph N/A   Clear
11:15 AM 33.8 °F 25.3 °F 24.8 °F 70% 29.85 in 10.0 mi NW 11.5 mph 17.3 mph N/A   Clear
11:35 AM 35.6 °F 27.5 °F 23.0 °F 60% 29.84 in 10.0 mi NW 11.5 mph - N/A   Clear
11:55 AM 37.4 °F 29.8 °F 23.0 °F 56% 29.84 in 10.0 mi WNW 11.5 mph - N/A   Clear
12:15 PM 37.4 °F 30.8 °F 23.0 °F 56% 29.83 in 10.0 mi WNW 9.2 mph - N/A   Clear
12:35 PM 39.2 °F 32.0 °F 23.0 °F 52% 29.82 in 10.0 mi NW 11.5 mph 17.3 mph N/A   Clear
12:55 PM 39.2 °F 30.8 °F 23.0 °F 52% 29.81 in 10.0 mi West 15.0 mph - N/A   Clear
1:15 PM 39.2 °F 32.0 °F 23.0 °F 52% 29.81 in 10.0 mi West 11.5 mph 19.6 mph N/A   Clear
1:35 PM 39.2 °F 30.8 °F 23.0 °F 52% 29.80 in 10.0 mi West 15.0 mph - N/A   Clear
1:55 PM 41.0 °F 34.3 °F 23.0 °F 49% 29.80 in 10.0 mi West 11.5 mph - N/A   Clear
2:15 PM 41.0 °F 33.9 °F 23.0 °F 49% 29.79 in 10.0 mi West 12.7 mph - N/A   Clear
2:35 PM 42.8 °F 36.6 °F 19.4 °F 39% 29.79 in 10.0 mi WSW 11.5 mph 18.4 mph N/A   Clear
2:55 PM 42.8 °F 36.6 °F 21.2 °F 42% 29.79 in 10.0 mi WSW 11.5 mph 17.3 mph N/A   Clear
3:15 PM 42.8 °F 37.5 °F 21.2 °F 42% 29.79 in 10.0 mi SW 9.2 mph 17.3 mph N/A   Clear
3:35 PM 41.0 °F 34.7 °F 21.2 °F 45% 29.79 in 10.0 mi SW 10.4 mph 16.1 mph N/A   Clear
3:55 PM 39.2 °F 33.6 °F 21.2 °F 49% 29.79 in 10.0 mi SW 8.1 mph 15.0 mph N/A   Clear
4:15 PM 39.2 °F 33.6 °F 21.2 °F 49% 29.79 in 10.0 mi SSW 8.1 mph - N/A   Clear
4:35 PM 39.2 °F 34.2 °F 23.0 °F 52% 29.79 in 10.0 mi South 6.9 mph - N/A   Clear
4:55 PM 39.2 °F 35.0 °F 23.0 °F 52% 29.79 in 10.0 mi South 5.8 mph - N/A   Clear
5:15 PM 37.4 °F 31.4 °F 21.2 °F 52% 29.78 in 10.0 mi South 8.1 mph - N/A   Clear
5:35 PM 35.6 °F 28.6 °F 21.2 °F 56% 29.78 in 10.0 mi SSW 9.2 mph - N/A   Mostly Cloudy
5:55 PM 35.6 °F 28.6 °F 23.0 °F 60% 29.77 in 10.0 mi South 9.2 mph - N/A   Overcast
6:15 PM 35.6 °F 29.2 °F 23.0 °F 60% 29.76 in 10.0 mi South 8.1 mph - N/A   Scattered Clouds
6:35 PM 33.8 °F 26.4 °F 23.0 °F 65% 29.75 in 10.0 mi SSW 9.2 mph - N/A   Clear
6:55 PM 33.8 °F 26.4 °F 23.0 °F 65% 29.74 in 10.0 mi SSW 9.2 mph - N/A   Clear
7:15 PM 33.8 °F 27.0 °F 23.0 °F 65% 29.74 in 10.0 mi SSW 8.1 mph - N/A   Clear
7:35 PM 32.0 °F 24.2 °F 23.0 °F 69% 29.73 in 10.0 mi SSW 9.2 mph - N/A   Clear
7:55 PM 32.0 °F 23.6 °F 24.8 °F 75% 29.73 in 10.0 mi SSW 10.4 mph - N/A   Clear
8:15 PM 33.8 °F 24.3 °F 24.8 °F 70% 29.72 in 10.0 mi South 13.8 mph - N/A   Clear
8:35 PM 33.8 °F 25.3 °F 24.8 °F 70% 29.71 in 10.0 mi SSW 11.5 mph - N/A   Clear
8:55 PM 32.0 °F 24.2 °F 26.6 °F 80% 29.71 in 10.0 mi SSW 9.2 mph - N/A   Clear
9:15 PM 32.0 °F 25.6 °F 26.6 °F 80% 29.71 in 10.0 mi SSW 6.9 mph - N/A   Clear
9:35 PM 32.0 °F 24.8 °F 26.6 °F 80% 29.70 in 10.0 mi SSW 8.1 mph - N/A   Clear
9:55 PM 32.0 °F 24.8 °F 26.6 °F 80% 29.70 in 10.0 mi SSW 8.1 mph - N/A   Clear
10:15 PM 32.0 °F 23.6 °F 26.6 °F 80% 29.69 in 10.0 mi SW 10.4 mph - N/A   Clear
10:35 PM 32.0 °F 24.8 °F 26.6 °F 80% 29.69 in 10.0 mi SSW 8.1 mph - N/A   Clear
10:55 PM 32.0 °F 24.8 °F 26.6 °F 80% 29.69 in 10.0 mi SW 8.1 mph - N/A   Clear
11:15 PM 32.0 °F 24.2 °F 26.6 °F 80% 29.68 in 10.0 mi SW 9.2 mph - N/A   Clear
11:35 PM 33.8 °F 25.8 °F 26.6 °F 75% 29.67 in 10.0 mi SW 10.4 mph - N/A   Clear
11:55 PM 33.8 °F 27.0 °F 26.6 °F 75% 29.67 in 10.0 mi SSW 8.1 mph - N/A   Clear